Terminal Aerodrome Forecast
Issued by NWS Knoxville/Tri Cities, TN

Home | Current Version | Previous Version | Text Only | Print | Product List | Glossary On
Versions: 1 2 3 4 5 6 7 8 9 10 11 12 13 14 15 16 17 18 19 20 21 22 23 24 25 26 27 28 29 30 31 32 33 34 35
000
FTUS44 KMRX 201124
TAFTRI
TAF
KTRI 201124Z 2012/2112 00000KT P6SM BKN250
     FM201600 23008KT P6SM BKN150
     FM202000 23009KT P6SM OVC080
     FM210200 VRB03KT P6SM BKN050
     FM210700 00000KT 3SM BR BKN020=

USA.gov is the U.S. government's official web portal to all federal, state and local government web resources and services.